• In Czech Republic
  • List of Countries
  • For 7 days
  • Water Temperature
  • Satellite Maps
  • Weather Map
  • Weather Widgets
  • user-avatar
    Login

    Hourly Weather Prescot

    Today, 18 January, Thursday

    Time Temperature Precipitation Wind Pressure Humidity
    00:00 +5°C° 1.3 mm 9 mps 737 mmHg 90%
    01:00 +6°C° 0.4 mm 10 mps 736 mmHg 87%
    02:00 +6°C° 0.4 mm 11 mps 736 mmHg 84%
    03:00 +5°C° 0.4 mm 12 mps 736 mmHg 81%
    04:00 +5°C° 0.1 mm 10 mps 737 mmHg 81%
    05:00 +3°C° 0.1 mm 9 mps 739 mmHg 82%
    06:00 +3°C° 0.1 mm 7 mps 740 mmHg 82%
    07:00 +3°C° 1 mm 7 mps 741 mmHg 83%
    08:00 +3°C° 1 mm 7 mps 741 mmHg 84%
    09:00 +3°C° 1 mm 7 mps 742 mmHg 85%
    10:00 +2°C° 0.5 mm 8 mps 742 mmHg 82%
    11:00 +2°C° 0.5 mm 8 mps 743 mmHg 78%
    12:00 +3°C° 0.5 mm 9 mps 743 mmHg 74%
    13:00 +2°C° 0.3 mm 8 mps 744 mmHg 74%
    14:00 +2°C° 0.3 mm 8 mps 744 mmHg 73%
    15:00 +2°C° 0.3 mm 8 mps 745 mmHg 72%
    16:00 +1°C° 0.2 mm 8 mps 745 mmHg 74%
    17:00 +2°C° 0.2 mm 7 mps 746 mmHg 75%
    18:00 0°C° 0.2 mm 7 mps 747 mmHg 76%
    19:00 0°C° 0.2 mm 7 mps 747 mmHg 77%
    20:00 +1°C° 0.2 mm 6 mps 748 mmHg 77%
    21:00 +1°C° 0.2 mm 6 mps 748 mmHg 77%
    22:00 +1°C° 0.2 mm 6 mps 748 mmHg 78%
    23:00 -1°C° 0.2 mm 6 mps 748 mmHg 79%

    Tomorrow, 19 January, Friday

    Time Temperature Precipitation Wind Pressure Humidity
    00:00 -1°C° 0.2 mm 6 mps 749 mmHg 80%
    01:00 -1°C° 0.2 mm 6 mps 748 mmHg 80%
    02:00 -1°C° 0.2 mm 6 mps 748 mmHg 80%
    03:00 -1°C° 0.2 mm 6 mps 748 mmHg 81%
    04:00 -1°C° 0.2 mm 6 mps 748 mmHg 80%
    05:00 -1°C° 0.2 mm 6 mps 748 mmHg 80%
    06:00 -1°C° 0.2 mm 6 mps 748 mmHg 80%
    07:00 -1°C° 0.2 mm 7 mps 748 mmHg 79%
    08:00 -1°C° 0.2 mm 7 mps 748 mmHg 79%
    09:00 -1°C° 0.2 mm 7 mps 748 mmHg 78%
    10:00 0°C° 0.4 mm 7 mps 748 mmHg 76%
    11:00 0°C° 0.4 mm 8 mps 748 mmHg 74%
    12:00 0°C° 0.4 mm 9 mps 748 mmHg 72%
    13:00 0°C° 0.3 mm 9 mps 748 mmHg 72%
    14:00 0°C° 0.3 mm 9 mps 748 mmHg 72%
    15:00 0°C° 0.3 mm 9 mps 748 mmHg 72%
    16:00 0°C° 0.4 mm 8 mps 748 mmHg 73%
    17:00 0°C° 0.4 mm 8 mps 748 mmHg 75%
    18:00 0°C° 0.4 mm 8 mps 749 mmHg 77%
    19:00 -1°C° 0.3 mm 8 mps 749 mmHg 78%
    20:00 -1°C° 0.3 mm 8 mps 749 mmHg 78%
    21:00 -1°C° 0.3 mm 7 mps 749 mmHg 79%
    22:00 -1°C° 0.3 mm 7 mps 749 mmHg 80%
    23:00 -1°C° 0.3 mm 7 mps 750 mmHg 81%

    Day after tomorrow, 20 January, Saturday

    Time Temperature Precipitation Wind Pressure Humidity
    00:00 -1°C° 0.3 mm 7 mps 750 mmHg 81%
    01:00 -1°C° 0.2 mm 6 mps 750 mmHg 82%
    02:00 -1°C° 0.2 mm 6 mps 750 mmHg 83%
    03:00 -1°C° 0.2 mm 5 mps 750 mmHg 84%
    04:00 -1°C° 0.1 mm 5 mps 750 mmHg 84%
    05:00 -1°C° 0.1 mm 5 mps 750 mmHg 84%
    06:00 -1°C° 0.1 mm 4 mps 750 mmHg 85%
    07:00 -1°C° 0 mm 4 mps 750 mmHg 84%
    08:00 -1°C° 0 mm 4 mps 750 mmHg 84%
    09:00 -1°C° 0 mm 4 mps 750 mmHg 84%
    10:00 0°C° 0 mm 4 mps 751 mmHg 83%
    11:00 +1°C° 0 mm 4 mps 751 mmHg 81%
    12:00 +3°C° 0 mm 4 mps 752 mmHg 80%
    13:00 +3°C° 0 mm 4 mps 752 mmHg 80%
    14:00 +3°C° 0 mm 4 mps 752 mmHg 81%
    15:00 +3°C° 0 mm 3 mps 752 mmHg 81%
    16:00 +3°C° 0 mm 2 mps 753 mmHg 82%
    17:00 +3°C° 0 mm 2 mps 753 mmHg 82%
    18:00 +3°C° 0 mm 1 mps 753 mmHg 83%
    19:00 +3°C° 0 mm 1 mps 754 mmHg 84%
    20:00 +2°C° 0 mm 2 mps 754 mmHg 84%
    21:00 +2°C° 0 mm 2 mps 754 mmHg 84%
    22:00 +2°C° 0.2 mm 2 mps 754 mmHg 85%
    23:00 +1°C° 0.2 mm 3 mps 754 mmHg 85%

    21 January, Sunday

    Time Temperature Precipitation Wind Pressure Humidity
    00:00 +1°C° 0.2 mm 3 mps 754 mmHg 86%
    01:00 +1°C° 0.6 mm 4 mps 753 mmHg 87%
    02:00 +1°C° 0.6 mm 5 mps 753 mmHg 89%
    03:00 +1°C° 0.6 mm 6 mps 752 mmHg 90%
    04:00 +1°C° 2.2 mm 6 mps 751 mmHg 92%
    05:00 +1°C° 2.2 mm 6 mps 751 mmHg 93%
    06:00 +2°C° 2.2 mm 6 mps 750 mmHg 95%
    07:00 +2°C° 3.1 mm 6 mps 750 mmHg 96%
    08:00 +3°C° 3.1 mm 5 mps 749 mmHg 96%
    09:00 +5°C° 3.1 mm 5 mps 749 mmHg 97%
    10:00 +6°C° 1.5 mm 5 mps 749 mmHg 96%
    11:00 +7°C° 1.5 mm 5 mps 749 mmHg 96%
    12:00 +8°C° 1.5 mm 5 mps 749 mmHg 96%
    13:00 +8°C° 0.2 mm 6 mps 749 mmHg 95%
    14:00 +9°C° 0.2 mm 6 mps 749 mmHg 94%
    15:00 +10°C° 0.2 mm 6 mps 750 mmHg 93%
    16:00 +9°C° 0 mm 6 mps 750 mmHg 94%
    17:00 +9°C° 0 mm 6 mps 751 mmHg 94%
    18:00 +8°C° 0 mm 5 mps 751 mmHg 95%
    19:00 +8°C° 0 mm 4 mps 752 mmHg 95%
    20:00 +7°C° 0 mm 4 mps 753 mmHg 96%
    21:00 +7°C° 0 mm 3 mps 753 mmHg 96%
    22:00 +7°C° 0 mm 2 mps 754 mmHg 95%
    23:00 +8°C° 0 mm 1 mps 754 mmHg 95%

    22 January, Monday

    Time Temperature Precipitation Wind Pressure Humidity
    00:00 +8°C° 0 mm 1 mps 754 mmHg 95%
    01:00 +8°C° 0 mm 1 mps 754 mmHg 95%
    02:00 +7°C° 0 mm 1 mps 754 mmHg 95%
    03:00 +7°C° 0 mm 1 mps 753 mmHg 95%
    04:00 +6°C° 0.2 mm 2 mps 753 mmHg 96%
    05:00 +7°C° 0.2 mm 2 mps 753 mmHg 96%
    06:00 +7°C° 0.2 mm 3 mps 752 mmHg 96%
    07:00 +6°C° 0.9 mm 4 mps 752 mmHg 96%
    08:00 +7°C° 0.9 mm 4 mps 751 mmHg 96%
    09:00 +8°C° 0.9 mm 5 mps 750 mmHg 96%
    10:00 +9°C° 0.4 mm 6 mps 750 mmHg 94%
    11:00 +9°C° 0.4 mm 7 mps 749 mmHg 93%
    12:00 +10°C° 0.4 mm 8 mps 748 mmHg 91%
    13:00 +10°C° 0.5 mm 9 mps 747 mmHg 90%
    14:00 +11°C° 0.5 mm 10 mps 746 mmHg 89%
    15:00 +11°C° 0.5 mm 11 mps 745 mmHg 87%
    16:00 +11°C° 0.1 mm 10 mps 746 mmHg 87%
    17:00 +11°C° 0.1 mm 10 mps 746 mmHg 86%
    18:00 +10°C° 0.1 mm 9 mps 747 mmHg 85%
    19:00 +10°C° 0.1 mm 9 mps 747 mmHg 85%
    20:00 +10°C° 0.1 mm 8 mps 748 mmHg 85%
    21:00 +9°C° 0.1 mm 8 mps 749 mmHg 85%
    22:00 +9°C° 0.1 mm 8 mps 749 mmHg 85%
    23:00 +7°C° 0.1 mm 8 mps 749 mmHg 85%

    23 January, Tuesday

    Time Temperature Precipitation Wind Pressure Humidity
    00:00 +7°C° 0.1 mm 8 mps 749 mmHg 85%
    01:00 +7°C° 0.2 mm 8 mps 750 mmHg 85%
    02:00 +9°C° 0.2 mm 8 mps 750 mmHg 85%
    03:00 +8°C° 0.2 mm 9 mps 751 mmHg 86%
    04:00 +9°C° 0.1 mm 8 mps 751 mmHg 85%
    05:00 +8°C° 0.1 mm 7 mps 752 mmHg 85%
    06:00 +7°C° 0.1 mm 6 mps 753 mmHg 85%
    07:00 +7°C° 0 mm 6 mps 754 mmHg 85%
    08:00 +7°C° 0 mm 6 mps 754 mmHg 85%
    09:00 +7°C° 0 mm 6 mps 755 mmHg 86%
    10:00 +8°C° 0 mm 6 mps 755 mmHg 82%
    11:00 +9°C° 0 mm 6 mps 755 mmHg 79%
    12:00 +10°C° 0 mm 6 mps 755 mmHg 75%
    13:00 +10°C° 0 mm 6 mps 754 mmHg 79%
    14:00 +10°C° 0 mm 6 mps 754 mmHg 83%
    15:00 +10°C° 0 mm 7 mps 753 mmHg 86%
    16:00 +10°C° 0 mm 7 mps 753 mmHg 86%
    17:00 +10°C° 0 mm 7 mps 753 mmHg 86%
    18:00 +10°C° 0 mm 8 mps 752 mmHg 85%
    19:00 +10°C° 0 mm 8 mps 752 mmHg 85%
    20:00 +10°C° 0 mm 8 mps 751 mmHg 85%
    21:00 +9°C° 0 mm 8 mps 751 mmHg 84%
    22:00 +10°C° 0.7 mm 8 mps 750 mmHg 86%
    23:00 +10°C° 0.7 mm 7 mps 749 mmHg 89%
    Show more